Miscellaneous Local Product
Issued by NWS North Platte, NE

Home | Current Version | Previous Version | Text Only | Print | Product List | Glossary On
Versions: 1 2 3 4 5 6 7 8 9 10 11 12 13 14 15 16 17 18 19 20 21 22 23 24 25 26 27 28 29 30 31 32 33 34 35 36 37 38 39 40 41 42 43 44 45 46 47 48 49 50
000
AXUS43 KLBF 301010
MISLBF


WESTERN AND NORTH CENTRAL NEBRASKA HOURLY WEATHER ROUNDUP
NATIONAL WEATHER SERVICE NORTH PLATTE NE
500 AM CDT THU OCT 30 2014

***STATIONS NOT REPORTING VARIABLES SUCH AS SKY/WEATHER OR
PRESSURE ARE PROVIDED BY THE NEBRASKA DEPARTMENT OF
ROADS...RAWS...AND APRS NETWORKS...AND ARE NOT UNDER
NATIONAL WEATHER SERVICE QUALITY CONTROL***

...OBSERVATIONS IN AND NEAR THE EASTERN PANHANDLE OF NEBRASKA...

CITY           SKY/WX    TMP DP  RH WIND       PRES   REMARKS
PINE RIDGE     CLEAR     34  28  79 CALM      30.19S
CHADRON        CLEAR     37  28  70 SW8       30.22R WCI  31
ALLIANCE       CLEAR     31  27  85 W12       30.22R WCI  22
SIDNEY         CLEAR     37  26  64 W13       30.23S WCI  29
WHITECLAY        N/A     37  27  65 CALM        N/A
RUSHVILLE        N/A     38  27  63 NW17        N/A  WCI  29
CRESCENT LAKE    N/A     39  26  61 NW9G16      N/A  WCI  33
LISCO            N/A     33  27  79 CALM        N/A
LEWELLEN         N/A     36  30  77 W8          N/A  WCI  30
$$

...OBSERVATIONS IN NORTH CENTRAL NEBRASKA...

CITY           SKY/WX    TMP DP  RH WIND       PRES   REMARKS
VALENTINE      CLEAR     37  30  75 W10       30.11S WCI  30
THEDFORD       CLEAR     38  30  73 W8        30.13S WCI  32
AINSWORTH      CLEAR     41  32  70 W7        30.10R
O`NEILL        CLEAR     46  34  63 W10       30.05S
ORD            CLEAR     35  30  82 NW9       30.07R WCI  28
BROKEN BOW     CLEAR     46  29  51 NW13      30.10R
BROWNLEE         N/A     44  33  67 W10         N/A
SPRINGVIEW       N/A     37  31  78 W3          N/A
BREWSTER         N/A     37  29  73 W7          N/A  WCI  31
ROSE             N/A     45  34  65 W8          N/A
NEWPORT          N/A     40  30  67 W9          N/A  WCI  35
SARGENT          N/A     40  31  71 W3          N/A
COMSTOCK         N/A     45  28  53 W7          N/A
CHAMBERS         N/A     43  28  55 W3          N/A
$$

...OBSERVATIONS IN SOUTHWEST NEBRASKA AND FAR NORTHEAST COLORADO...

CITY           SKY/WX    TMP DP  RH WIND       PRES   REMARKS
WRAY           FAIR      39  26  59 NW9       30.21R WCI  32
HOLYOKE        FAIR      45  27  49 W9        30.21R
IMPERIAL       CLEAR     40  25  55 W14       30.18R WCI  32
OGALLALA       CLEAR     35  28  74 SW10      30.18R WCI  28
NORTH PLATTE   CLEAR     32  25  75 W8        30.15R WCI  25
MCCOOK         CLEAR     45  25  45 W10       30.14R
LEXINGTON      CLEAR     40  29  65 W9        30.11R WCI  34
PAXTON           N/A     41  32  69 W3          N/A
SUTHERLAND       N/A     35  21  55 W6          N/A  WCI  30
BRADY            N/A     37  27  67 CALM        N/A
GOTHENBURG       N/A     42  25  50 NW5         N/A
CALLAWAY         N/A     45  28  51 NW7         N/A
$$

...SOME WEATHER OBSERVATIONS FROM AROUND THE REGION...

CITY           SKY/WX    TMP DP  RH WIND       PRES   REMARKS
DENVER         PTCLDY    47  25  42 CALM      30.29R
LARAMIE        CLOUDY    36  25  64 E6        30.33R WCI  31
CHEYENNE       PTCLDY    43  23  45 N9        30.30R
SCOTTSBLUFF    CLEAR     35  28  75 NW6       30.26R WCI  30
RAPID CITY     CLEAR     40  30  67 N10       30.16R WCI  33
PIERRE         CLEAR     46  38  73 NW20      30.05R
WINNER         FAIR      46  34  62 W15       30.07R
SIOUX FALLS    MOCLDY    42  33  70 SW3       29.97R
OMAHA          PTCLDY    45  33  63 S6        29.99F
GRAND ISLAND   CLEAR     38  33  82 W5        30.04R WCI  34
KANSAS CITY    PTCLDY    49  39  68 S13       30.00F
WICHITA        MOCLDY    48  36  63 S7        30.03F
HAYS           PTCLDY    46  30  53 NW12      30.06R
LIBERAL        CLEAR     43  34  70 W6        30.12S
GOODLAND       CLEAR     39  26  59 NW12      30.21R WCI  32
$$



USA.gov is the U.S. government's official web portal to all federal, state and local government web resources and services.